Погода в Сеймчане

Погода в Сеймчане : погода сейчас, прогноз погоды и архив. Всё, что Вы хотите узнать о погоде в Сеймчане!

Хотите узнать прогноз погоды в Сеймчане? Тогда Вам сюда: Погода в Сеймчане

Поиск расширенной информации на нашем сайте:

Другие новости

Новости СМИ2

Главная страница сайта

Новости сайта

02.10.2013

Напоминаем, что на нашем новом сайте вы можете получить высокодетализированные прогнозы погоды по пунктам России, СНГ и мира (включающие важные для авиации метеовеличины, такие как направление и скорость ветра, видимость, явления погоды, количество и форма облачности, нижняя и верхняя граница облачности), а также ознакомиться с разнообразными материалами по авиационной метеорологии и подборкой полезных ссылок на эту тему.

Сайт Метеоцентр.Азия посвящён разработке технологий оптимизации авиаметеорологического обслуживания, включая проектирование и перспективное создание нескольких автоматизированных авиаметеорологических систем:
- система выпуска высокодетальных прогностических карт явлений погоды для нижнего воздушного пространства по России и ближнему зарубежью;
- система верификации прогнозов TAF (выпускаемых синоптиками официальных АМСГ РФ и ближнего зарубежья) и AUTOTAF (выпускаемых сайтом Метеоцентр.Азия) - выявление ошибок, онлайн-сопоставление с фактической погодой METAR, автоматическое внесение коррективов в прогнозы при резком отклонении фактической погоды от прогноза, подсчёт оправдываемости прогнозов по элементам и в целом;
- система обработки, анализа и отображения авиаметеорологической информации для применения провайдерами метеорологической информации.

Рекомендуем: Если плохие окна необходимо грамотно выбрать нащельник со склада.

Погода в Сеймчане - сегодня

Время (UTC), дата Ветер
(°,м/с) 
Видим.   Явления Облачность Т
(°С)
Тd
(°С)
f(%) Тe
(°С)
Pmin
(гПа)
dP
(гПа)
Po
(мм)
O2
(г/м3)
Тmin Tmax R s Состояние
почвы
12 22.03.17 тихо ()   20000 м    4/0 средняя, верхняя 
[Ac trans|Ci fib]
-15.8 -19.9 71 -16  1021.6  0.1  745  320           
15 22.03.17 290 (З) 20000 м    4/0 верхняя 
[Ci fib]
-22.2 -24.3 83 -23  1022.4  0.1  745  329           
18 22.03.17 тихо ()   20000 м    4/0 верхняя 
[Ci fib]
-25.3 -27.3 83 -25  1023.2  0.5  746  333           
21 22.03.17 тихо ()   20000 м    8/0 средняя, верхняя 
[Ac trans|Ci fib]
-24.4 -27.1 78 -24  1024.1  0.5  746  332  -26.4      67  равномерный
мокрый или
старый снег
100% 
00 23.03.17 тихо ()   20000 м    8/0 средняя, верхняя 
[Ac trans|Ci fib]
-8.5 -18 46 -9  1023.1  0.8  747  312           
03 23.03.17 270 (З) 20000 м    9/0 средняя, верхняя 
[Ac trans|Ci fib]
-3.8 -16.7 36 -3  1022.4  -0.2  747  306           
06 23.03.17 030 (СВ) 20000 м    9/0 средняя, верхняя 
[Ac trans|Ci fib]
-4.3 -14.3 46 -8  1022.4  0.1  747  307           
09 23.03.17 020 (С) 20000 м    9/3 1000 м средняя 
[Sc|Ac trans]
-6.3 -14.5 52 -9  1023.9  1.3  748  310    -2.8       
12 23.03.17 350 (С) 20000 м    6/0 средняя 
[Ac trans]
-10.4 -15.6 66 -12  1024.6  0.2  748  315           
15 23.03.17 300 (СЗ) 20000 м    9/0 средняя, верхняя 
[Ac trans|Ci fib]
-18.9 -21.1 83 -19  1025  -0.5  747  325           
18 23.03.17 220 (ЮЗ) 20000 м    5/0 верхняя 
[Ci fib]
-21.9 -23.6 86 -22  1024.7  -0.6  747  329           
21 23.03.17 тихо ()   20000 м    6/0 средняя, верхняя 
[Ac trans|Ci fib]
-21.6 -24 81 -22  1024.1  -0.6  746  328  -22.5      66  равномерный
мокрый или
старый снег
100% 
00 24.03.17 130 (ЮВ) 20000 м    1/0 верхняя 
[Ci fib]
-8.7 -15.5 58 -8  1021.4  -1.2  746  312           
03 24.03.17 180 (Ю) 20000 м    ясно 
-3.8 -13.2 48 -5  1018.9  -2  744  305           
06 24.03.17 170 (Ю) 20000 м    ясно 
-3.4 -14 44 -5  1017.3  -1.5  743  304           
09 24.03.17 тихо ()   20000 м    ясно 
-12.9 -16.1 77 -13  1017.9  -0.3  743  315    -3.2       
12 24.03.17 310 (СЗ) 20000 м    ясно 
-21 -22.9 85 -21  1018.6  -0.3  743  326           
15 24.03.17 тихо ()   20000 м    ясно 
-24.2 -26.1 84 -24  1018.7  -0.2  742  330           
18 24.03.17 тихо ()   20000 м    ясно 
-26.7 -29.2 79 -27  1018.6  -0.4  742  333           
21 24.03.17 тихо ()   20000 м    ясно 
-22.6 -25.2 79 -23  1019  0.9  743  328  -27.6      65  равномерный
мокрый или
старый снег
100% 
00 25.03.17 060 (СВ) 20000 м    ясно 
-11.5 -18.2 58 -11  1018.1  0.3  743  314           
03 25.03.17 230 (ЮЗ) 20000 м    ясно 
-6.3 -14.8 51 -6  1016.6  -1  742  307           
06 25.03.17 200 (Ю) 20000 м    3/0 верхняя 
[Ci fib]
-5.9 -14.6 50 -6  1016.6  0.1  742  307           
09 25.03.17 260 (З) 20000 м    1/0 верхняя 
[Ci fib]
-15.5 -18.4 78 -16  1018.8  1.1  743  319    -4.7       
12 25.03.17 300 (СЗ) 20000 м    ясно 
-23.1 -25.2 83 -24  1020.6  744  329           
Время (UTC), дата Ветер
(°,м/с) 
Видим.   Явления Облачность Т
(°С)
Тd
(°С)
f(%) Тe
(°С)
Pmin
(гПа)
dP
(гПа)
Po
(мм)
O2
(г/м3)
Тmin Tmax R s Состояние
почвы

Для получения пояснительной информации подведите курсор к названию столбца.

ПОГОДА в Сеймчане - архив

Всё, что Вы хотите узнать о погоде в Сеймчане - удобно и подробно!

Выберите нужную дату (начиная с 1 января 2015* года) и нажмите кнопку "Найти".
Будут отображены архивные сводки погоды по пункту Сеймчан, начиная с указанной даты.


Отображать данные в формате CSV (для использования в таблицах Excel)


Внимание! Наш архив погоды предназначен исключительно для личного некоммерческого использования в познавательных целях. Если Вам необходимы официальные справки о состоянии погоды (для производственных, юридических, коммерческих и т.п. целей), обращайтесь в органы Росгидромета.

*Примечание: данная дата относится к архиву по метеостанциям СССР (Россия, СНГ, Балтия).
Архив по метеостанциям Зарубежной Европы и Азии (кроме Китая) хранится 10 дней, по другим регионам земного шара (Китай, Африка, Америка, Австралия, Океания) - 1 день.

Сеймчан - район местоположения метеостанции


Название, широта, долгота, высота метеостанции:
Сеймчан 62.9°ш. 152.4°д. 205 м над ур. моря [Российская Федерация]

Дополнительная информация

В oтличие oт бoльшинства пoгoдных сайтoв мы публикуем пoдрoбную метеoинфoрмацию в детальнoм прoфессиoнальнoм фoрмате.

Характеристики температуры и влажнoсти вoздуха измеряются на высoте 2 м в тени вдали oт зданий и деревьев.
Скoрoсть ветра измеряется на высoте 10 м (на урoвне рoста челoвека скoрoсть ветра ниже в 1.5-2 раза). Если метеoстанция нахoдится в гoрoде или в лесу, тo скoрoсть ветра занижена на 2-4 м/с пo сравнению с oткрытым местoм. Скoрoсть ветра над акватoриями крупных рек и oзёр, а также на вершинах хoлмoв на 2-5 м/с выше, чем в oбычных услoвиях.
Атмoсфернoе давление в разных тoчках местнoсти мoжет значительнo oтличаться oт давления на метеoстанции, в зависимoсти oт услoвий рельефа (при пoдъёме на 10 м давление пoнижается примернo на 1 мм рт.ст.).